OPS 4682 DEB, 38449

Orbit data source: Space-Track

OPS 4682 DEB, 38449 is space debris in LEO originally from a launch on Sat, 03 Apr 1965 UTC launched from the Air Force Western Test Range (AFWTR). Debris objects in space refer to the collection of defunct objects orbiting the Earth. Examples of debris include non-operational satellites, rocket bodies, and fragments generated from explosions, collisions, or faulty payload assembly.

Loading next visibility...
Identifier
38449, 1965-027FE
Orbit
LEO
Country
Flag of USUS
Related business
Manufacturer
Unknown
Mission
Spacecraft
Bus & Motor
Unknown
Mass
Unknown
Launch date (UTC)
1965-04-03 (61 years ago)
Launch vehicle
Unknown
Launch site
Air Force Western Test Range (AFWTR)
Object type
Payload
Rocket body
Debris
Shape & HBR
Unknown shape, 0.1 m
Radar Cross Section
Small (<0.1 m²)

Expand to show TLE details & history
Last TLE update: 3 days ago

TLE from 3 days ago
0 OPS 4682 DEB
1 38449U 65027FE  25347.33320349  .00000280  00000-0  96872-3 0  9991
2 38449  90.2423   6.8205 0029912 296.6954  63.1104 12.95212047563579
Epoch: 2025-12-13T07:59Z
TLE epoch observation values (Epoch: 2025-12-13T07:59:48.781Z)
Latitude
-0.00002°
Longitude
164.60527°
Altitude
1,273.472 km
Speed
7.224 km/s
True Right ascension
00h 27m 16s
True Declination
0° 00' 00"
Sunlit
Object was in daylight at epoch
Visualization orbit readout
Latitude
Unknown
Longitude
Unknown
Altitude
Unknown
Speed
Unknown
Apparent Right ascension
Unknown
Apparent Declination
Unknown
Sunlit
N/A
Visualization observer readout
Local Sidereal Time
03:26:42
Azimuth
Unknown
Elevation
Unknown
Doppler factor
Unknown
Orbital elements
Apogee altitude
1,300.939 km
Perigee altitude
1,255.137 km
Semi-major axis
7,656.175 km
Eccentricity
0.00299
Inclination
90.2423°
RAAN
6.8205°
Arg. of periapsis
296.6954°
True anomaly
63.41662°
Mean anomaly
63.1104°
Eccentric anomaly
63.26346°
Mean motion
3.23985 °/min
Orbital period
111.12 mins
BSTAR
0.00096872
Loading maneuver chart data...
Computing Atmospheric mass density...
Loading historical data...
Loading historical data...
Loading historical data...
Loading historical data...
Loading historical data...
Loading historical data...
Loading historical data...

Documentation

Showing up to 5 results
|